EN

Hourly Weather Palom

Today, 6 March, Saturday

Time Temperature Precipitation Wind Pressure Humidity
00:00 -9°C° 0 mm 3 mps 745 mmHg 90%
01:00 -9°C° 0 mm 3 mps 746 mmHg 91%
02:00 -9°C° 0 mm 2 mps 746 mmHg 92%
03:00 -10°C° 0 mm 2 mps 746 mmHg 91%
04:00 -12°C° 0 mm 2 mps 746 mmHg 90%
05:00 -12°C° 0 mm 2 mps 746 mmHg 89%
06:00 -12°C° 0 mm 2 mps 746 mmHg 88%
07:00 -12°C° 0 mm 2 mps 747 mmHg 87%
08:00 -10°C° 0 mm 2 mps 747 mmHg 85%
09:00 -9°C° 0 mm 2 mps 747 mmHg 82%
10:00 -8°C° 0 mm 3 mps 747 mmHg 78%
11:00 -7°C° 0 mm 3 mps 747 mmHg 74%
12:00 -6°C° 0 mm 3 mps 747 mmHg 72%
13:00 -7°C° 0 mm 4 mps 747 mmHg 71%
14:00 -5°C° 0 mm 4 mps 747 mmHg 69%
15:00 -7°C° 0 mm 4 mps 746 mmHg 73%
16:00 -7°C° 0 mm 3 mps 746 mmHg 77%
17:00 -8°C° 0 mm 3 mps 746 mmHg 81%
18:00 -8°C° 0 mm 3 mps 746 mmHg 82%
19:00 -9°C° 0 mm 3 mps 746 mmHg 83%
20:00 -11°C° 0 mm 4 mps 745 mmHg 84%
21:00 -11°C° 0 mm 4 mps 745 mmHg 83%
22:00 -11°C° 0 mm 5 mps 744 mmHg 83%
23:00 -11°C° 0 mm 5 mps 744 mmHg 82%

Tomorrow, 7 March, Sunday

Time Temperature Precipitation Wind Pressure Humidity
00:00 -11°C° 0 mm 6 mps 743 mmHg 83%
01:00 -10°C° 0 mm 6 mps 742 mmHg 84%
02:00 -11°C° 0 mm 7 mps 741 mmHg 85%
03:00 -9°C° 0 mm 7 mps 740 mmHg 83%
04:00 -8°C° 0 mm 8 mps 739 mmHg 82%
05:00 -8°C° 0 mm 8 mps 738 mmHg 80%
06:00 -8°C° 0.1 mm 9 mps 737 mmHg 83%
07:00 -8°C° 0.1 mm 9 mps 735 mmHg 86%
08:00 -8°C° 0.1 mm 10 mps 734 mmHg 89%
09:00 -7°C° 0.3 mm 10 mps 734 mmHg 90%
10:00 -6°C° 0.3 mm 11 mps 733 mmHg 91%
11:00 -4°C° 0.3 mm 11 mps 732 mmHg 91%
12:00 -5°C° 1 mm 10 mps 732 mmHg 90%
13:00 -6°C° 1 mm 9 mps 733 mmHg 89%
14:00 -7°C° 1 mm 7 mps 733 mmHg 87%
15:00 -7°C° 0.1 mm 7 mps 733 mmHg 85%
16:00 -7°C° 0.1 mm 7 mps 733 mmHg 82%
17:00 -6°C° 0.1 mm 6 mps 733 mmHg 79%
18:00 -8°C° 0 mm 6 mps 733 mmHg 77%
19:00 -9°C° 0 mm 6 mps 733 mmHg 75%
20:00 -10°C° 0 mm 5 mps 733 mmHg 73%
21:00 -9°C° 0 mm 6 mps 733 mmHg 74%
22:00 -9°C° 0 mm 7 mps 733 mmHg 75%
23:00 -8°C° 0 mm 7 mps 733 mmHg 76%

Day after tomorrow, 8 March, Monday

Time Temperature Precipitation Wind Pressure Humidity
00:00 -11°C° 0.1 mm 7 mps 733 mmHg 76%
01:00 -12°C° 0.1 mm 7 mps 734 mmHg 75%
02:00 -14°C° 0.1 mm 6 mps 734 mmHg 75%
03:00 -14°C° 0 mm 6 mps 735 mmHg 77%
04:00 -15°C° 0 mm 6 mps 735 mmHg 79%
05:00 -15°C° 0 mm 6 mps 736 mmHg 81%
06:00 -14°C° 0 mm 5 mps 736 mmHg 83%
07:00 -14°C° 0 mm 5 mps 737 mmHg 85%
08:00 -14°C° 0 mm 5 mps 738 mmHg 87%
09:00 -13°C° 0 mm 5 mps 738 mmHg 84%
10:00 -11°C° 0 mm 5 mps 738 mmHg 81%
11:00 -10°C° 0 mm 5 mps 739 mmHg 77%
12:00 -10°C° 0 mm 5 mps 739 mmHg 78%
13:00 -8°C° 0 mm 5 mps 739 mmHg 79%
14:00 -8°C° 0 mm 5 mps 740 mmHg 80%
15:00 -8°C° 0 mm 5 mps 740 mmHg 82%
16:00 -9°C° 0 mm 4 mps 740 mmHg 84%
17:00 -8°C° 0 mm 3 mps 740 mmHg 87%
18:00 -9°C° 0 mm 3 mps 741 mmHg 89%
19:00 -10°C° 0 mm 3 mps 741 mmHg 92%
20:00 -10°C° 0 mm 2 mps 742 mmHg 94%
21:00 -10°C° 0 mm 2 mps 742 mmHg 94%
22:00 -12°C° 0 mm 2 mps 742 mmHg 93%
23:00 -13°C° 0 mm 2 mps 742 mmHg 93%

9 March, Tuesday

Time Temperature Precipitation Wind Pressure Humidity
00:00 -13°C° 0 mm 2 mps 743 mmHg 93%
01:00 -13°C° 0 mm 2 mps 743 mmHg 94%
02:00 -13°C° 0 mm 2 mps 743 mmHg 94%
03:00 -13°C° 0 mm 2 mps 743 mmHg 94%
04:00 -13°C° 0 mm 2 mps 744 mmHg 94%
05:00 -13°C° 0 mm 2 mps 744 mmHg 94%
06:00 -14°C° 0 mm 3 mps 744 mmHg 93%
07:00 -14°C° 0 mm 3 mps 745 mmHg 92%
08:00 -14°C° 0 mm 3 mps 745 mmHg 91%
09:00 -13°C° 0 mm 3 mps 746 mmHg 88%
10:00 -14°C° 0 mm 4 mps 746 mmHg 84%
11:00 -12°C° 0 mm 4 mps 746 mmHg 80%
12:00 -12°C° 0 mm 4 mps 747 mmHg 80%
13:00 -12°C° 0 mm 4 mps 747 mmHg 79%
14:00 -11°C° 0 mm 4 mps 747 mmHg 78%
15:00 -12°C° 0 mm 3 mps 747 mmHg 81%
16:00 -10°C° 0 mm 2 mps 747 mmHg 83%
17:00 -12°C° 0 mm 2 mps 747 mmHg 86%
18:00 -13°C° 0 mm 2 mps 748 mmHg 87%
19:00 -13°C° 0 mm 2 mps 748 mmHg 88%
20:00 -14°C° 0 mm 2 mps 748 mmHg 90%
21:00 -14°C° 0 mm 2 mps 748 mmHg 89%
22:00 -13°C° 0 mm 2 mps 748 mmHg 89%
23:00 -13°C° 0 mm 2 mps 748 mmHg 88%

10 March, Wednesday

Time Temperature Precipitation Wind Pressure Humidity
00:00 -14°C° 0 mm 3 mps 748 mmHg 88%
01:00 -13°C° 0 mm 3 mps 748 mmHg 87%
02:00 -14°C° 0 mm 4 mps 747 mmHg 87%
03:00 -12°C° 0.2 mm 4 mps 747 mmHg 87%
04:00 -12°C° 0.2 mm 5 mps 747 mmHg 87%
05:00 -12°C° 0.2 mm 5 mps 746 mmHg 87%
06:00 -11°C° 0 mm 5 mps 746 mmHg 86%
07:00 -11°C° 0 mm 5 mps 746 mmHg 85%
08:00 -11°C° 0 mm 5 mps 746 mmHg 84%
09:00 -10°C° 0 mm 5 mps 747 mmHg 82%
10:00 -8°C° 0 mm 5 mps 747 mmHg 81%
11:00 -7°C° 0 mm 5 mps 747 mmHg 79%
12:00 -7°C° 0 mm 5 mps 747 mmHg 79%
13:00 -6°C° 0 mm 5 mps 747 mmHg 79%
14:00 -5°C° 0 mm 4 mps 748 mmHg 79%
15:00 -5°C° 0.1 mm 4 mps 748 mmHg 82%
16:00 -6°C° 0.1 mm 3 mps 748 mmHg 85%
17:00 -6°C° 0.1 mm 2 mps 748 mmHg 87%
18:00 -7°C° 0.1 mm 2 mps 748 mmHg 89%
19:00 -8°C° 0.1 mm 2 mps 748 mmHg 90%
20:00 -12°C° 0.1 mm 3 mps 748 mmHg 91%
21:00 -12°C° 0 mm 3 mps 749 mmHg 92%
22:00 -12°C° 0 mm 3 mps 749 mmHg 93%
23:00 -13°C° 0 mm 3 mps 749 mmHg 93%

11 March, Thursday

Time Temperature Precipitation Wind Pressure Humidity
00:00 -13°C° 0 mm 3 mps 749 mmHg 94%
01:00 -13°C° 0 mm 3 mps 749 mmHg 94%
02:00 -13°C° 0 mm 3 mps 749 mmHg 94%
03:00 -14°C° 0 mm 3 mps 748 mmHg 94%
04:00 -14°C° 0 mm 3 mps 748 mmHg 94%
05:00 -14°C° 0 mm 3 mps 748 mmHg 95%
06:00 -13°C° 0 mm 3 mps 748 mmHg 93%
07:00 -13°C° 0 mm 3 mps 748 mmHg 92%
08:00 -12°C° 0 mm 3 mps 748 mmHg 91%
09:00 -9°C° 0 mm 3 mps 748 mmHg 88%
10:00 -9°C° 0 mm 4 mps 748 mmHg 85%
11:00 -7°C° 0 mm 4 mps 747 mmHg 83%
12:00 -5°C° 0 mm 4 mps 747 mmHg 80%
13:00 -5°C° 0 mm 5 mps 746 mmHg 77%
14:00 -4°C° 0 mm 5 mps 746 mmHg 75%
15:00 -4°C° 0 mm 5 mps 745 mmHg 77%
16:00 -5°C° 0 mm 5 mps 745 mmHg 79%
17:00 -5°C° 0 mm 5 mps 744 mmHg 82%
18:00 -6°C° 0 mm 6 mps 744 mmHg 82%
19:00 -6°C° 0 mm 6 mps 743 mmHg 83%
20:00 -7°C° 0 mm 7 mps 742 mmHg 84%
21:00 -7°C° 0.1 mm 8 mps 741 mmHg 86%
22:00 -8°C° 0.1 mm 8 mps 740 mmHg 89%
23:00 -8°C° 0.1 mm 8 mps 739 mmHg 91%
Show more

We Need Your Consent

Meteoprog and our Service Providers may store and access personal data such as cookies, device identifiers or other similar technologies on your device and process such data to personalise content and ads, as well as provide social media features and to analyse the traffic.

  • Store and/or access information on your device

    Cookies, device identifiers or other information can be stored or accessed on your device for the purposes indicated above.

  • Personalised ads and content, ad and content measurement, audience insights, and products development

    Ads and content can be personalised based on a profile. More data can be added to better personalise ads and content. Ad and content performance can be measured. Insights about the audience who saw the ads and content can be derived. Such data can be used to develop or improve user’s experience, systems and software.

By clicking ‘I Agree’ you will allow the use of indicated cookies, device identifiers, web beacons or other similar technologies. Your settings can be changed in the browser on your device.

For certain purposes, legitimate interests may be relied on, rather than consent. You can read more about this in our Privacy and Cookie Policy.